METEOR 3-3

Satellite information

Favourite Embed

Satellite Type and Status

PAYLOADIN ORBIT

Key statistics

Satellite METEOR 3-3 at a glance.

Uptime

13150

Days in orbit

Revolutions

≈ 13.0

Per day

Orbit

LEO

Low Earth Orbit

Inclination

82.5

Latest

Satellite identification and parameters

Extended collection of information and parameters for METEOR 3-3.

Object identification

Identified? True

Debris? False

Object name: METEOR 3-3

International designator: 1989-086A

Object number (NORAD): 20305

Object ID (CCSDS): 20305

Country: COMMONWEALTH OF INDEPENDENT STATES (CIS)

Current information (Y/N): Y

RCS size: LARGE

Orbital parameters

Period: 110.372 minutes

Inclination: 82.5437 deg

SMA: 7621.966 km

Apoapsis: 1249.538 km

Periapsis: 1238.124 km

RAAN: 269.6669 deg

Eccentricy: 0.00074872

Argument of periapsis: 29.636 deg

Mean anomaly: 32.6495 deg

Mean motion: 13.04674682 rev/day

Mean motion (dot): 0.00000158 rev/day2

B* drag term: 0.00045558115 1/REarth

Two-line elements (TLE)

Creation date: Oct. 25, 2025, 3:11 a.m.

Reference frame: TEME

Reference center: EARTH

Epoch: Oct. 24, 2025, 11:42 p.m. UTC

TLE line 0: 0 METEOR 3-3

TLE line 1: 1 20305U 89086A 25297.98804322 .00000158 00000-0 45558-3 0 9996

TLE line 2: 2 20305 82.5437 269.6669 0007487 29.6360 32.6495 13.04674682715943

Live tracking on map

Real-time ground track for satellite METEOR 3-3.

In-orbit conjunctions

A list of the most updated potential collisions computed for object METEOR 3-3.

Target Orbit TCA Probability of collision Miss distance Type
COSMOS 886 DEB LEO 2025-09-19 17:30:57 0.0001513577 650.0 (m) DEBRIS
SL-14 DEB LEO 2024-09-11 16:11:34 0.0006271358 154.0 (m) DEBRIS

Associated space launch

Third generation meteorological satellite

METEOR 3-3 was lifted into orbit during the mission ‘Tsiklon-3 | Meteor-3 3’, on board a Tsiklon-3 space rocket.

The launch took place on Oct. 24, 1989, 9:35 p.m. from 32/1.

For more information about the launch, click the button.

Launch to space Tsiklon-3 | Meteor-3 3
Tsiklon-3 | Meteor-3 3

Agency: N/A

Status: Launch Successful

Launch date: Oct. 24, 1989, 9:35 p.m. UTC

Rocket: Tsiklon-3

Launch pad: 32/1

Location: Plesetsk Cosmodrome, Russian Federation

...

Latest news about this satellite

There are no fresh news available about this satellite. Check back as we update our databases every day.


Newsletter sign-up

Weekly statistics, charts and insights to help you stay on top of the space industry.